| time (UTC) | temp F | wind direction | speed MPH | gust MPH | rain 1hr in | rain 24hr in | rain mn in | humidity % | barometer mb |
| 20260507012003 | 52 | 243 | 0.0 | 1.0 | 0.00 | 0.00 | 0.00 | 91 | 1006.3 |
| 20260507011503 | 53 | 245 | 0.0 | 1.0 | 0.00 | 0.00 | 0.00 | 90 | 1006.3 |
| 20260507011003 | 54 | 247 | 0.0 | 1.0 | 0.00 | 0.00 | 0.00 | 89 | 1006.0 |
| 20260507010503 | 54 | 247 | 0.0 | 1.0 | 0.00 | 0.00 | 0.00 | 88 | 1005.9 |
| 20260507010024 | 54 | 248 | 0.0 | 1.0 | 0.00 | 0.00 | 0.00 | 88 | 1005.9 |
| 20260507005503 | 54 | 249 | 0.0 | 1.0 | 0.00 | 0.00 | 0.00 | 87 | 1006.0 |
| 20260507005003 | 54 | 251 | 0.0 | 1.0 | 0.00 | 0.00 | 0.00 | 88 | 1006.0 |
| 20260507004503 | 54 | 251 | 0.0 | 1.0 | 0.00 | 0.00 | 0.00 | 89 | 1005.8 |
| 20260507004003 | 54 | 251 | 0.0 | 1.0 | 0.00 | 0.00 | 0.00 | 89 | 1005.8 |
| 20260507003503 | 54 | 251 | 0.0 | 1.0 | 0.00 | 0.00 | 0.00 | 89 | 1005.8 |
| 20260507003003 | 54 | 0 | 0.0 | 0.0 | 0.00 | 0.00 | 0.00 | 89 | 1005.5 |
| 20260507002524 | 54 | 0 | 0.0 | 0.0 | 0.00 | 0.00 | 0.00 | 89 | 1005.3 |
| 20260507002025 | 53 | 0 | 0.0 | 0.0 | 0.00 | 0.00 | 0.00 | 88 | 1005.4 |
| 20260507001503 | 54 | 0 | 0.0 | 0.0 | 0.00 | 0.00 | 0.00 | 88 | 1005.3 |
| 20260507001003 | 54 | 0 | 0.0 | 0.0 | 0.00 | 0.00 | 0.00 | 88 | 1005.2 |
| 20260507000525 | 54 | 0 | 0.0 | 0.0 | 0.00 | 0.00 | 0.00 | 87 | 1005.2 |
| 20260507000004 | 54 | 256 | 0.0 | 1.0 | 0.00 | 0.00 | 0.00 | 87 | 1005.1 |
| 20260506235503 | 54 | 256 | 0.0 | 1.0 | 0.00 | 0.00 | 0.00 | 87 | 1005.2 |
| 20260506235003 | 55 | 0 | 0.0 | 0.0 | 0.00 | 0.00 | 0.00 | 86 | 1005.3 |
| 20260506234504 | 55 | 256 | 0.0 | 1.0 | 0.00 | 0.00 | 0.00 | 85 | 1004.9 |
| 20260506234024 | 55 | 256 | 0.0 | 1.0 | 0.00 | 0.00 | 0.00 | 85 | 1004.6 |
| 20260506233503 | 56 | 257 | 0.0 | 2.0 | 0.00 | 0.00 | 0.00 | 83 | 1004.5 |
| 20260506233025 | 57 | 256 | 1.0 | 2.0 | 0.00 | 0.00 | 0.00 | 82 | 1004.3 |
| 20260506232503 | 58 | 259 | 1.0 | 2.0 | 0.00 | 0.00 | 0.00 | 80 | 1004.6 |
| 20260506232003 | 58 | 262 | 1.0 | 3.0 | 0.00 | 0.00 | 0.00 | 79 | 1004.4 |
| 20260506231503 | 58 | 260 | 1.0 | 3.0 | 0.00 | 0.00 | 0.00 | 79 | 1004.4 |
| 20260506231024 | 58 | 255 | 1.0 | 3.0 | 0.00 | 0.00 | 0.00 | 79 | 1004.5 |
| 20260506230504 | 58 | 245 | 1.0 | 3.0 | 0.00 | 0.00 | 0.00 | 78 | 1004.6 |
| 20260506230003 | 58 | 236 | 1.0 | 3.0 | 0.00 | 0.00 | 0.00 | 78 | 1004.5 |
| 20260506225503 | 58 | 200 | 1.0 | 3.0 | 0.00 | 0.00 | 0.00 | 78 | 1004.5 |
| 20260506225003 | 59 | 166 | 0.0 | 2.0 | 0.00 | 0.00 | 0.00 | 77 | 1004.2 |
| 20260506224504 | 59 | 218 | 0.0 | 1.0 | 0.00 | 0.00 | 0.00 | 77 | 1004.6 |
| 20260506224003 | 59 | 233 | 0.0 | 1.0 | 0.00 | 0.00 | 0.00 | 77 | 1004.4 |
| 20260506223503 | 59 | 232 | 0.0 | 1.0 | 0.00 | 0.00 | 0.00 | 76 | 1004.3 |
| 20260506223003 | 60 | 198 | 0.0 | 3.0 | 0.00 | 0.00 | 0.00 | 75 | 1004.1 |
| 20260506222504 | 60 | 211 | 1.0 | 3.0 | 0.00 | 0.00 | 0.00 | 74 | 1004.0 |
| 20260506222003 | 60 | 225 | 1.0 | 3.0 | 0.00 | 0.00 | 0.00 | 74 | 1004.2 |
| 20260506221504 | 61 | 217 | 1.0 | 3.0 | 0.00 | 0.00 | 0.00 | 73 | 1004.2 |
| 20260506221003 | 61 | 195 | 1.0 | 3.0 | 0.00 | 0.00 | 0.00 | 73 | 1004.0 |
| 20260506220503 | 61 | 148 | 1.0 | 4.0 | 0.00 | 0.00 | 0.00 | 73 | 1004.0 |
| 20260506220004 | 61 | 130 | 1.0 | 6.0 | 0.00 | 0.00 | 0.00 | 72 | 1004.1 |
| 20260506215503 | 61 | 186 | 1.0 | 6.0 | 0.00 | 0.00 | 0.00 | 72 | 1004.1 |
| 20260506215004 | 61 | 181 | 1.0 | 4.0 | 0.00 | 0.00 | 0.00 | 71 | 1004.1 |
| 20260506214503 | 62 | 203 | 1.0 | 4.0 | 0.00 | 0.00 | 0.00 | 71 | 1004.1 |
| 20260506214003 | 62 | 231 | 2.0 | 4.0 | 0.00 | 0.00 | 0.00 | 70 | 1004.1 |
| 20260506213503 | 62 | 232 | 1.0 | 4.0 | 0.00 | 0.00 | 0.00 | 70 | 1004.0 |
| 20260506213003 | 62 | 238 | 1.0 | 6.0 | 0.00 | 0.00 | 0.00 | 70 | 1003.9 |
| 20260506212503 | 62 | 225 | 2.0 | 6.0 | 0.00 | 0.00 | 0.00 | 69 | 1003.6 |
| 20260506212024 | 62 | 207 | 1.0 | 6.0 | 0.00 | 0.00 | 0.00 | 69 | 1003.6 |
| 20260506211524 | 63 | 206 | 1.0 | 3.0 | 0.00 | 0.00 | 0.00 | 68 | 1003.8 |
| 20260506211024 | 63 | 227 | 1.0 | 6.0 | 0.00 | 0.00 | 0.00 | 68 | 1003.7 |
| 20260506210503 | 63 | 225 | 2.0 | 9.0 | 0.00 | 0.00 | 0.00 | 67 | 1003.7 |
| 20260506210004 | 63 | 225 | 3.0 | 9.0 | 0.00 | 0.00 | 0.00 | 67 | 1003.4 |
| 20260506205524 | 63 | 216 | 2.0 | 9.0 | 0.00 | 0.00 | 0.00 | 67 | 1003.6 |
| 20260506205024 | 63 | 193 | 1.0 | 8.0 | 0.00 | 0.00 | 0.00 | 67 | 1003.6 |
| 20260506204503 | 64 | 182 | 2.0 | 8.0 | 0.00 | 0.00 | 0.00 | 66 | 1003.8 |
| 20260506204003 | 64 | 181 | 2.0 | 6.0 | 0.00 | 0.00 | 0.00 | 66 | 1003.4 |
| 20260506203503 | 64 | 209 | 2.0 | 6.0 | 0.00 | 0.00 | 0.00 | 65 | 1003.6 |
| 20260506203004 | 64 | 209 | 1.0 | 4.0 | 0.00 | 0.00 | 0.00 | 66 | 1003.3 |
| 20260506202503 | 64 | 212 | 2.0 | 9.0 | 0.00 | 0.00 | 0.00 | 65 | 1003.4 |
| 20260506202004 | 64 | 201 | 3.0 | 10.0 | 0.00 | 0.00 | 0.00 | 64 | 1003.5 |
| 20260506201503 | 64 | 205 | 3.0 | 10.0 | 0.00 | 0.00 | 0.00 | 64 | 1003.7 |
| 20260506201003 | 65 | 224 | 2.0 | 7.0 | 0.00 | 0.00 | 0.00 | 63 | 1003.7 |
| 20260506200504 | 65 | 227 | 2.0 | 7.0 | 0.00 | 0.00 | 0.00 | 63 | 1003.7 |
| 20260506200004 | 65 | 219 | 2.0 | 7.0 | 0.00 | 0.00 | 0.00 | 63 | 1003.6 |
| 20260506195503 | 65 | 208 | 2.0 | 7.0 | 0.00 | 0.00 | 0.00 | 62 | 1003.6 |
| 20260506195004 | 65 | 213 | 3.0 | 10.0 | 0.00 | 0.00 | 0.00 | 62 | 1003.3 |
| 20260506194503 | 66 | 212 | 3.0 | 10.0 | 0.00 | 0.00 | 0.00 | 61 | 1003.2 |
| 20260506194003 | 66 | 207 | 2.0 | 8.0 | 0.00 | 0.00 | 0.00 | 61 | 1003.2 |
| 20260506193503 | 66 | 224 | 2.0 | 8.0 | 0.00 | 0.00 | 0.00 | 60 | 1003.3 |
| 20260506193003 | 66 | 218 | 3.0 | 8.0 | 0.00 | 0.00 | 0.00 | 60 | 1003.2 |
| 20260506192525 | 66 | 213 | 3.0 | 8.0 | 0.00 | 0.00 | 0.00 | 60 | 1003.3 |
| 20260506192003 | 66 | 211 | 2.0 | 8.0 | 0.00 | 0.00 | 0.00 | 59 | 1003.1 |
| 20260506191524 | 66 | 208 | 2.0 | 9.0 | 0.00 | 0.00 | 0.00 | 59 | 1003.0 |
| 20260506191004 | 66 | 193 | 3.0 | 9.0 | 0.00 | 0.00 | 0.00 | 59 | 1003.1 |
| 20260506190524 | 66 | 200 | 2.0 | 9.0 | 0.00 | 0.00 | 0.00 | 59 | 1003.1 |
| 20260506190025 | 67 | 215 | 3.0 | 13.0 | 0.00 | 0.00 | 0.00 | 58 | 1003.1 |
| 20260506185504 | 67 | 206 | 3.0 | 13.0 | 0.00 | 0.00 | 0.00 | 58 | 1003.2 |
| 20260506185004 | 67 | 169 | 3.0 | 13.0 | 0.00 | 0.00 | 0.00 | 57 | 1003.2 |
| 20260506184503 | 67 | 155 | 2.0 | 8.0 | 0.00 | 0.00 | 0.00 | 57 | 1003.1 |
| 20260506184003 | 67 | 184 | 2.0 | 8.0 | 0.00 | 0.00 | 0.00 | 57 | 1003.1 |
| 20260506183524 | 68 | 211 | 2.0 | 8.0 | 0.00 | 0.00 | 0.00 | 57 | 1003.1 |
| 20260506183025 | 68 | 206 | 2.0 | 4.0 | 0.00 | 0.00 | 0.00 | 56 | 1003.0 |
| 20260506182504 | 68 | 207 | 2.0 | 4.0 | 0.00 | 0.00 | 0.00 | 56 | 1002.9 |
| 20260506182003 | 68 | 211 | 2.0 | 8.0 | 0.00 | 0.00 | 0.00 | 56 | 1002.9 |
| 20260506181503 | 68 | 190 | 2.0 | 10.0 | 0.00 | 0.00 | 0.00 | 55 | 1002.8 |
| 20260506181004 | 68 | 206 | 3.0 | 10.0 | 0.00 | 0.00 | 0.00 | 55 | 1002.9 |
| 20260506180524 | 68 | 206 | 3.0 | 14.0 | 0.00 | 0.00 | 0.00 | 55 | 1003.0 |
| 20260506180005 | 69 | 198 | 3.0 | 14.0 | 0.00 | 0.00 | 0.00 | 54 | 1002.7 |
| 20260506175503 | 69 | 184 | 4.0 | 10.0 | 0.00 | 0.00 | 0.00 | 54 | 1002.7 |
| 20260506175004 | 69 | 201 | 5.0 | 11.0 | 0.00 | 0.00 | 0.00 | 53 | 1002.6 |
| 20260506174503 | 70 | 229 | 4.0 | 11.0 | 0.00 | 0.00 | 0.00 | 52 | 1002.8 |
| 20260506174004 | 70 | 217 | 4.0 | 9.0 | 0.00 | 0.00 | 0.00 | 52 | 1003.0 |
| 20260506173503 | 70 | 203 | 3.0 | 8.0 | 0.00 | 0.00 | 0.00 | 52 | 1002.6 |
| 20260506173004 | 70 | 213 | 4.0 | 13.0 | 0.00 | 0.00 | 0.00 | 52 | 1002.8 |
| 20260506172503 | 70 | 222 | 4.0 | 13.0 | 0.00 | 0.00 | 0.00 | 51 | 1002.7 |
| 20260506172003 | 70 | 214 | 3.0 | 11.0 | 0.00 | 0.00 | 0.00 | 51 | 1002.8 |
| 20260506171504 | 70 | 189 | 3.0 | 11.0 | 0.00 | 0.00 | 0.00 | 50 | 1002.8 |
| 20260506171003 | 71 | 195 | 3.0 | 11.0 | 0.00 | 0.00 | 0.00 | 50 | 1002.8 |
| 20260506170503 | 71 | 200 | 2.0 | 9.0 | 0.00 | 0.00 | 0.00 | 50 | 1002.9 |
| 20260506170004 | 71 | 194 | 2.0 | 9.0 | 0.00 | 0.00 | 0.00 | 49 | 1002.9 |
| 20260506165503 | 72 | 219 | 2.0 | 11.0 | 0.00 | 0.00 | 0.00 | 48 | 1002.7 |
| 20260506165003 | 72 | 237 | 3.0 | 11.0 | 0.00 | 0.00 | 0.00 | 48 | 1002.8 |
| 20260506164524 | 72 | 228 | 3.0 | 11.0 | 0.00 | 0.00 | 0.00 | 48 | 1002.7 |
| 20260506164003 | 72 | 215 | 3.0 | 9.0 | 0.00 | 0.00 | 0.00 | 48 | 1002.9 |
| 20260506163503 | 72 | 215 | 3.0 | 9.0 | 0.00 | 0.00 | 0.00 | 47 | 1002.6 |
| 20260506163003 | 72 | 204 | 3.0 | 9.0 | 0.00 | 0.00 | 0.00 | 47 | 1002.9 |
| 20260506162524 | 73 | 199 | 3.0 | 9.0 | 0.00 | 0.00 | 0.00 | 47 | 1002.6 |
| 20260506162004 | 73 | 204 | 3.0 | 10.0 | 0.00 | 0.00 | 0.00 | 47 | 1003.1 |
| 20260506161504 | 73 | 221 | 4.0 | 13.0 | 0.00 | 0.00 | 0.00 | 47 | 1003.1 |
| 20260506161004 | 73 | 210 | 4.0 | 13.0 | 0.00 | 0.00 | 0.00 | 47 | 1003.0 |
| 20260506160504 | 73 | 193 | 4.0 | 14.0 | 0.00 | 0.00 | 0.00 | 47 | 1003.4 |
| 20260506160025 | 73 | 224 | 4.0 | 14.0 | 0.00 | 0.00 | 0.00 | 46 | 1003.2 |
| 20260506155504 | 73 | 229 | 4.0 | 14.0 | 0.00 | 0.00 | 0.00 | 46 | 1003.5 |
| 20260506155003 | 74 | 224 | 3.0 | 9.0 | 0.00 | 0.00 | 0.00 | 46 | 1003.3 |
| 20260506154504 | 74 | 205 | 3.0 | 9.0 | 0.00 | 0.00 | 0.00 | 45 | 1003.4 |
| 20260506154003 | 74 | 205 | 4.0 | 9.0 | 0.00 | 0.00 | 0.00 | 47 | 1003.6 |
| 20260506153504 | 75 | 206 | 3.0 | 9.0 | 0.00 | 0.00 | 0.00 | 45 | 1003.6 |
| 20260506153003 | 74 | 196 | 3.0 | 11.0 | 0.00 | 0.00 | 0.00 | 46 | 1003.7 |
| 20260506152524 | 74 | 215 | 4.0 | 13.0 | 0.00 | 0.00 | 0.00 | 46 | 1003.8 |
| 20260506152003 | 74 | 235 | 4.0 | 13.0 | 0.00 | 0.00 | 0.00 | 46 | 1003.6 |
| 20260506151504 | 74 | 221 | 3.0 | 10.0 | 0.00 | 0.00 | 0.00 | 46 | 1003.8 |
| 20260506151024 | 73 | 199 | 3.0 | 10.0 | 0.00 | 0.00 | 0.00 | 49 | 1003.9 |
| 20260506150504 | 72 | 202 | 3.0 | 10.0 | 0.00 | 0.00 | 0.00 | 49 | 1004.3 |
| 20260506150004 | 72 | 187 | 3.0 | 10.0 | 0.00 | 0.00 | 0.00 | 49 | 1004.0 |
| 20260506145503 | 72 | 200 | 4.0 | 10.0 | 0.00 | 0.00 | 0.00 | 49 | 1004.5 |
| 20260506145003 | 72 | 231 | 4.0 | 11.0 | 0.00 | 0.00 | 0.00 | 50 | 1004.3 |
| 20260506144503 | 72 | 233 | 3.0 | 11.0 | 0.00 | 0.00 | 0.00 | 49 | 1004.0 |
| 20260506144024 | 72 | 211 | 3.0 | 11.0 | 0.00 | 0.00 | 0.00 | 49 | 1004.5 |
| 20260506143504 | 72 | 202 | 3.0 | 10.0 | 0.00 | 0.00 | 0.00 | 50 | 1004.3 |
| 20260506143003 | 72 | 162 | 3.0 | 10.0 | 0.00 | 0.00 | 0.00 | 50 | 1004.4 |
| 20260506142503 | 72 | 125 | 3.0 | 10.0 | 0.00 | 0.00 | 0.00 | 52 | 1004.3 |
| 20260506142003 | 71 | 135 | 3.0 | 10.0 | 0.00 | 0.00 | 0.00 | 52 | 1004.3 |
| 20260506141503 | 71 | 184 | 3.0 | 10.0 | 0.00 | 0.00 | 0.00 | 51 | 1004.2 |
| 20260506141003 | 71 | 192 | 3.0 | 10.0 | 0.00 | 0.00 | 0.00 | 51 | 1004.4 |
| 20260506140503 | 71 | 213 | 3.0 | 11.0 | 0.00 | 0.00 | 0.00 | 51 | 1004.4 |
| 20260506140004 | 71 | 229 | 5.0 | 11.0 | 0.00 | 0.00 | 0.00 | 50 | 1004.8 |
| 20260506135504 | 72 | 202 | 4.0 | 11.0 | 0.00 | 0.00 | 0.00 | 50 | 1004.5 |
| 20260506135004 | 72 | 121 | 2.0 | 11.0 | 0.00 | 0.00 | 0.00 | 51 | 1004.6 |
| 20260506134504 | 73 | 113 | 2.0 | 4.0 | 0.00 | 0.00 | 0.00 | 49 | 1004.6 |
| 20260506134024 | 74 | 166 | 2.0 | 4.0 | 0.00 | 0.00 | 0.00 | 49 | 1004.6 |
| 20260506133503 | 72 | 189 | 2.0 | 9.0 | 0.00 | 0.00 | 0.00 | 48 | 1004.8 |
| 20260506133004 | 71 | 198 | 3.0 | 9.0 | 0.00 | 0.00 | 0.00 | 49 | 1004.9 |
| 20260506132503 | 71 | 204 | 3.0 | 9.0 | 0.00 | 0.00 | 0.00 | 49 | 1004.9 |
| 20260506132004 | 71 | 204 | 2.0 | 10.0 | 0.00 | 0.00 | 0.00 | 49 | 1005.0 |
| 20260506131504 | 71 | 217 | 3.0 | 10.0 | 0.00 | 0.00 | 0.00 | 49 | 1005.3 |
| 20260506131003 | 72 | 223 | 3.0 | 10.0 | 0.00 | 0.00 | 0.00 | 48 | 1005.1 |
| 20260506130503 | 73 | 224 | 2.0 | 10.0 | 0.00 | 0.00 | 0.00 | 47 | 1005.6 |
| 20260506130004 | 73 | 227 | 3.0 | 10.0 | 0.00 | 0.00 | 0.00 | 47 | 1005.4 |
| 20260506125504 | 72 | 230 | 2.0 | 6.0 | 0.00 | 0.00 | 0.00 | 47 | 1005.4 |
| 20260506125004 | 71 | 220 | 2.0 | 6.0 | 0.00 | 0.00 | 0.00 | 48 | 1005.5 |
| 20260506124504 | 72 | 174 | 2.0 | 13.0 | 0.00 | 0.00 | 0.00 | 48 | 1005.5 |
| 20260506124004 | 72 | 198 | 3.0 | 13.0 | 0.00 | 0.00 | 0.00 | 48 | 1005.6 |
| 20260506123504 | 72 | 228 | 3.0 | 13.0 | 0.00 | 0.00 | 0.00 | 48 | 1005.6 |
| 20260506123003 | 73 | 131 | 2.0 | 13.0 | 0.00 | 0.00 | 0.00 | 48 | 1005.7 |
| 20260506122503 | 72 | 155 | 3.0 | 13.0 | 0.00 | 0.00 | 0.00 | 48 | 1005.6 |
| 20260506122004 | 74 | 219 | 3.0 | 7.0 | 0.00 | 0.00 | 0.00 | 46 | 1005.6 |
| 20260506121503 | 74 | 215 | 3.0 | 9.0 | 0.00 | 0.00 | 0.00 | 46 | 1005.6 |
| 20260506121003 | 72 | 215 | 3.0 | 9.0 | 0.00 | 0.00 | 0.00 | 48 | 1005.7 |
| 20260506120503 | 73 | 210 | 3.0 | 9.0 | 0.00 | 0.00 | 0.00 | 46 | 1005.8 |
| 20260506120004 | 73 | 213 | 2.0 | 7.0 | 0.00 | 0.00 | 0.00 | 45 | 1005.7 |
| 20260506115504 | 73 | 212 | 2.0 | 8.0 | 0.00 | 0.00 | 0.00 | 45 | 1005.8 |
| 20260506115025 | 73 | 223 | 2.0 | 8.0 | 0.00 | 0.00 | 0.00 | 47 | 1006.0 |
| 20260506114503 | 74 | 208 | 2.0 | 7.0 | 0.00 | 0.00 | 0.00 | 46 | 1005.8 |
| 20260506114003 | 74 | 220 | 3.0 | 7.0 | 0.00 | 0.00 | 0.00 | 47 | 1005.7 |
| 20260506113504 | 73 | 218 | 3.0 | 7.0 | 0.00 | 0.00 | 0.00 | 46 | 1005.8 |
| 20260506113003 | 73 | 212 | 3.0 | 7.0 | 0.00 | 0.00 | 0.00 | 46 | 1005.8 |
| 20260506112504 | 72 | 208 | 3.0 | 7.0 | 0.00 | 0.00 | 0.00 | 47 | 1006.0 |
| 20260506112003 | 73 | 166 | 2.0 | 7.0 | 0.00 | 0.00 | 0.00 | 47 | 1005.9 |
| 20260506111503 | 73 | 158 | 1.0 | 6.0 | 0.00 | 0.00 | 0.00 | 48 | 1005.9 |
| 20260506111004 | 73 | 188 | 1.0 | 4.0 | 0.00 | 0.00 | 0.00 | 48 | 1005.9 |
| 20260506110524 | 73 | 207 | 2.0 | 7.0 | 0.00 | 0.00 | 0.00 | 48 | 1006.0 |
| 20260506110004 | 72 | 201 | 2.0 | 7.0 | 0.00 | 0.00 | 0.00 | 48 | 1006.1 |
| 20260506105503 | 72 | 155 | 2.0 | 9.0 | 0.00 | 0.00 | 0.00 | 47 | 1006.2 |
| 20260506105003 | 72 | 129 | 2.0 | 9.0 | 0.00 | 0.00 | 0.00 | 47 | 1006.1 |
| 20260506104504 | 72 | 136 | 2.0 | 6.0 | 0.00 | 0.00 | 0.00 | 47 | 1006.0 |
| 20260506104004 | 72 | 209 | 3.0 | 7.0 | 0.00 | 0.00 | 0.00 | 48 | 1006.0 |
| 20260506103504 | 72 | 231 | 3.0 | 11.0 | 0.00 | 0.00 | 0.00 | 50 | 1006.4 |
| 20260506103004 | 73 | 230 | 4.0 | 11.0 | 0.00 | 0.00 | 0.00 | 48 | 1006.3 |
| 20260506102524 | 73 | 216 | 3.0 | 11.0 | 0.00 | 0.00 | 0.00 | 48 | 1006.1 |
| 20260506102024 | 73 | 96 | 2.0 | 7.0 | 0.00 | 0.00 | 0.00 | 48 | 1006.3 |
| 20260506101503 | 73 | 97 | 3.0 | 7.0 | 0.00 | 0.00 | 0.00 | 50 | 1006.4 |
| 20260506101004 | 71 | 149 | 3.0 | 7.0 | 0.00 | 0.00 | 0.00 | 51 | 1006.5 |
| 20260506100504 | 73 | 159 | 2.0 | 7.0 | 0.00 | 0.00 | 0.00 | 49 | 1006.3 |
| 20260506100004 | 74 | 161 | 3.0 | 7.0 | 0.00 | 0.00 | 0.00 | 48 | 1006.4 |
| 20260506095503 | 72 | 208 | 2.0 | 7.0 | 0.00 | 0.00 | 0.00 | 51 | 1006.7 |
| 20260506095003 | 71 | 215 | 2.0 | 9.0 | 0.00 | 0.00 | 0.00 | 52 | 1006.5 |
| 20260506094524 | 71 | 186 | 3.0 | 9.0 | 0.00 | 0.00 | 0.00 | 53 | 1006.6 |
| 20260506094004 | 71 | 161 | 3.0 | 10.0 | 0.00 | 0.00 | 0.00 | 53 | 1006.5 |
| 20260506093503 | 70 | 207 | 2.0 | 10.0 | 0.00 | 0.00 | 0.00 | 56 | 1006.6 |
| 20260506093004 | 70 | 154 | 1.0 | 6.0 | 0.00 | 0.00 | 0.00 | 55 | 1006.5 |
| 20260506092504 | 69 | 143 | 1.0 | 4.0 | 0.00 | 0.00 | 0.00 | 56 | 1006.5 |
| 20260506092025 | 71 | 191 | 2.0 | 7.0 | 0.00 | 0.00 | 0.00 | 53 | 1006.6 |
| 20260506091503 | 71 | 181 | 3.0 | 7.0 | 0.00 | 0.00 | 0.00 | 52 | 1006.5 |
| 20260506091004 | 71 | 196 | 3.0 | 7.0 | 0.00 | 0.00 | 0.00 | 53 | 1006.6 |
| 20260506090504 | 70 | 208 | 3.0 | 7.0 | 0.00 | 0.00 | 0.00 | 55 | 1006.7 |
| 20260506090004 | 70 | 199 | 2.0 | 7.0 | 0.00 | 0.00 | 0.00 | 54 | 1006.5 |
| 20260506085504 | 71 | 167 | 2.0 | 6.0 | 0.00 | 0.00 | 0.00 | 52 | 1006.5 |
| 20260506085004 | 70 | 196 | 2.0 | 6.0 | 0.00 | 0.00 | 0.00 | 54 | 1006.5 |
| 20260506084504 | 69 | 201 | 2.0 | 8.0 | 0.00 | 0.00 | 0.00 | 56 | 1006.7 |
| 20260506084003 | 69 | 198 | 2.0 | 9.0 | 0.00 | 0.00 | 0.00 | 56 | 1006.6 |
| 20260506083503 | 70 | 201 | 3.0 | 9.0 | 0.00 | 0.00 | 0.00 | 54 | 1006.8 |
| 20260506083003 | 69 | 174 | 3.0 | 9.0 | 0.00 | 0.00 | 0.00 | 54 | 1006.7 |
| 20260506082503 | 70 | 195 | 2.0 | 7.0 | 0.00 | 0.00 | 0.00 | 54 | 1006.7 |
| 20260506082003 | 68 | 231 | 2.0 | 7.0 | 0.00 | 0.00 | 0.00 | 58 | 1006.8 |
| 20260506081525 | 67 | 222 | 3.0 | 8.0 | 0.00 | 0.00 | 0.00 | 57 | 1006.9 |
| 20260506081003 | 68 | 228 | 3.0 | 9.0 | 0.00 | 0.00 | 0.00 | 57 | 1006.9 |
| 20260506080503 | 67 | 236 | 4.0 | 10.0 | 0.00 | 0.00 | 0.00 | 58 | 1006.6 |
| 20260506073504 | 68 | 196 | 1.0 | 6.0 | 0.00 | 0.00 | 0.00 | 59 | 1006.5 |
| 20260506073004 | 66 | 225 | 2.0 | 10.0 | 0.00 | 0.00 | 0.00 | 61 | 1006.9 |
| 20260506072504 | 65 | 226 | 2.0 | 10.0 | 0.00 | 0.00 | 0.00 | 63 | 1006.9 |
| 20260506072003 | 64 | 217 | 2.0 | 10.0 | 0.00 | 0.00 | 0.00 | 64 | 1006.7 |
| 20260506071504 | 65 | 211 | 2.0 | 9.0 | 0.00 | 0.00 | 0.00 | 63 | 1006.7 |
| 20260506071025 | 65 | 201 | 2.0 | 9.0 | 0.00 | 0.00 | 0.00 | 62 | 1006.6 |
| 20260506070503 | 65 | 215 | 2.0 | 7.0 | 0.00 | 0.00 | 0.00 | 62 | 1006.7 |
| 20260506062504 | 64 | 81 | 1.0 | 3.0 | 0.00 | 0.00 | 0.00 | 72 | 1006.8 |
| 20260506062025 | 63 | 83 | 1.0 | 3.0 | 0.00 | 0.00 | 0.00 | 72 | 1006.5 |
| 20260506061503 | 63 | 82 | 1.0 | 3.0 | 0.00 | 0.00 | 0.00 | 73 | 1006.8 |
| 20260506061003 | 62 | 78 | 1.0 | 2.0 | 0.00 | 0.00 | 0.00 | 74 | 1006.7 |
| 20260506060504 | 62 | 72 | 1.0 | 2.0 | 0.00 | 0.00 | 0.00 | 75 | 1006.7 |
| 20260506051003 | 55 | 67 | 1.0 | 2.0 | 0.00 | 0.00 | 0.00 | 81 | 1006.4 |
| 20260506050504 | 55 | 62 | 1.0 | 2.0 | 0.00 | 0.00 | 0.00 | 81 | 1006.5 |
| 20260506045003 | 53 | 51 | 1.0 | 2.0 | 0.00 | 0.00 | 0.00 | 83 | 1006.3 |
| 20260506044525 | 53 | 50 | 0.0 | 2.0 | 0.00 | 0.00 | 0.00 | 83 | 1006.2 |
| 20260506044004 | 52 | 50 | 0.0 | 1.0 | 0.00 | 0.00 | 0.00 | 86 | 1006.4 |
| 20260506043503 | 51 | 50 | 0.0 | 1.0 | 0.00 | 0.00 | 0.00 | 87 | 1006.4 |
| 20260506043003 | 51 | 49 | 0.0 | 2.0 | 0.00 | 0.00 | 0.00 | 87 | 1006.3 |
| 20260506042504 | 50 | 48 | 0.0 | 2.0 | 0.00 | 0.00 | 0.00 | 89 | 1006.1 |
| 20260506042003 | 49 | 0 | 0.0 | 0.0 | 0.00 | 0.00 | 0.00 | 93 | 1006.1 |
| 20260506041503 | 48 | 37 | 0.0 | 1.0 | 0.00 | 0.00 | 0.00 | 94 | 1006.2 |
| 20260506041004 | 48 | 37 | 0.0 | 1.0 | 0.00 | 0.00 | 0.00 | 94 | 1005.9 |
| 20260506040503 | 48 | 37 | 0.0 | 1.0 | 0.00 | 0.00 | 0.00 | 94 | 1005.8 |
| 20260506040025 | 48 | 37 | 0.0 | 2.0 | 0.00 | 0.00 | 0.00 | 95 | 1005.9 |
| 20260506035504 | 48 | 37 | 0.0 | 2.0 | 0.00 | 0.00 | 0.00 | 95 | 1005.6 |
| 20260506035024 | 48 | 0 | 0.0 | 0.0 | 0.00 | 0.00 | 0.00 | 95 | 1005.9 |
| 20260506034504 | 48 | 0 | 0.0 | 0.0 | 0.00 | 0.00 | 0.00 | 94 | 1005.6 |
| 20260506034003 | 48 | 0 | 0.0 | 0.0 | 0.00 | 0.00 | 0.00 | 94 | 1005.8 |
| 20260506033504 | 48 | 0 | 0.0 | 0.0 | 0.00 | 0.00 | 0.00 | 94 | 1005.8 |
| 20260506033004 | 48 | 0 | 0.0 | 0.0 | 0.00 | 0.00 | 0.00 | 93 | 1005.9 |
| 20260506032503 | 48 | 0 | 0.0 | 0.0 | 0.00 | 0.00 | 0.00 | 93 | 1005.8 |
| 20260506032003 | 49 | 0 | 0.0 | 0.0 | 0.00 | 0.00 | 0.00 | 93 | 1005.7 |
| 20260506031503 | 49 | 37 | 0.0 | 1.0 | 0.00 | 0.00 | 0.00 | 93 | 1005.6 |
| 20260506031003 | 49 | 37 | 0.0 | 1.0 | 0.00 | 0.00 | 0.00 | 92 | 1005.6 |
| 20260506030525 | 50 | 37 | 0.0 | 1.0 | 0.00 | 0.00 | 0.00 | 92 | 1005.6 |
| 20260506030004 | 50 | 0 | 0.0 | 0.0 | 0.00 | 0.00 | 0.00 | 91 | 1005.7 |
| 20260506025504 | 50 | 0 | 0.0 | 0.0 | 0.00 | 0.00 | 0.00 | 91 | 1005.6 |
| 20260506025004 | 50 | 0 | 0.0 | 0.0 | 0.00 | 0.00 | 0.00 | 91 | 1005.8 |
| 20260506024503 | 51 | 32 | 0.0 | 1.0 | 0.00 | 0.00 | 0.00 | 90 | 1005.5 |
| 20260506024004 | 51 | 32 | 0.0 | 1.0 | 0.00 | 0.00 | 0.00 | 90 | 1005.5 |
| 20260506023504 | 51 | 19 | 0.0 | 2.0 | 0.00 | 0.00 | 0.00 | 90 | 1005.3 |
| 20260506023004 | 51 | 14 | 0.0 | 2.0 | 0.00 | 0.00 | 0.00 | 90 | 1005.4 |
| 20260506022504 | 51 | 252 | 0.0 | 1.0 | 0.00 | 0.00 | 0.00 | 91 | 1005.4 |
| 20260506022004 | 51 | 0 | 0.0 | 0.0 | 0.00 | 0.00 | 0.00 | 91 | 1005.8 |
| 20260506021525 | 51 | 0 | 0.0 | 0.0 | 0.00 | 0.00 | 0.00 | 91 | 1005.7 |
| 20260506021025 | 51 | 0 | 0.0 | 0.0 | 0.00 | 0.00 | 0.00 | 90 | 1005.7 |
| 20260506020504 | 51 | 0 | 0.0 | 0.0 | 0.00 | 0.00 | 0.00 | 89 | 1005.7 |
| 20260506020004 | 52 | 0 | 0.0 | 0.0 | 0.00 | 0.00 | 0.00 | 90 | 1005.5 |
| 20260506015503 | 52 | 0 | 0.0 | 0.0 | 0.00 | 0.00 | 0.00 | 90 | 1005.3 |
| 20260506015004 | 52 | 251 | 0.0 | 1.0 | 0.00 | 0.00 | 0.00 | 89 | 1005.5 |
| 20260506014505 | 53 | 251 | 0.0 | 1.0 | 0.00 | 0.00 | 0.00 | 88 | 1005.1 |
| 20260506014004 | 54 | 251 | 0.0 | 1.0 | 0.00 | 0.00 | 0.00 | 86 | 1005.5 |
| 20260506013504 | 54 | 0 | 0.0 | 0.0 | 0.00 | 0.00 | 0.00 | 85 | 1005.3 |
| 20260506013003 | 54 | 0 | 0.0 | 0.0 | 0.00 | 0.00 | 0.00 | 84 | 1005.1 |
| 20260506012504 | 55 | 0 | 0.0 | 0.0 | 0.00 | 0.00 | 0.00 | 82 | 1004.9 |